Location: Kur�w
(53.3641°N, 14.5053°E)
Time: 23:47:40
(UTC+00:00)

Daily predictions for brighter satellites

Satellite Brightness Start Highest point End
(mag) Time Altitude Azimuth Time Altitude Azimuth Time Altitude Azimuth
Cosmos 1634 Rocket 4.1 19:45:17 10° N 19:51:38 76° ENE 19:57:57 10° SSE
Cosmos 1544 3.1 19:51:11 10° NNW 19:54:52 86° WSW 19:58:30 10° S
Cosmos 2082 Rocket 2.8 19:50:35 10° NNW 19:56:13 52° NE 20:01:47 10° SE
STARLINK-1112 3.6 19:52:06 10° W 19:56:16 83° S 20:00:26 10° E
SAR-Lupe-2 4.0 19:53:27 10° NNE 19:56:56 44° E 20:00:24 10° S
Landsat 7 3.9 19:53:37 10° SSE 19:58:23 83° ENE 20:03:11 10° NNW
STARLINK-1124 3.6 19:54:48 10° W 19:58:58 80° S 20:03:06 10° ESE
Cosmos 1954 Rocket 4.1 19:53:55 10° NNW 19:59:12 81° ENE 20:04:29 10° SSE
Cosmos 2151 Rocket 4.2 19:56:25 10° N 20:00:46 43° ENE 20:05:05 10° SE
STARLINK-1128 3.6 19:57:05 10° W 20:01:15 85° S 20:05:25 10° E
STARLINK-1088 4.2 19:57:31 10° W 20:01:29 44° SSW 20:05:26 10° SE
STARLINK-1122 3.6 19:59:47 10° W 20:03:56 78° SSW 20:08:05 10° ESE
Cosmos 1833 Rocket 2.8 19:59:33 10° NNW 20:05:12 82° NE 20:10:51 10° SE
Okean 1 Rocket 4.5 20:01:37 10° N 20:05:26 26° ENE 20:09:12 10° ESE
SeaSat 1 4.3 20:03:34 10° ENE 20:05:41 13° E 20:07:47 10° SE
ERS-1 Rocket 3.1 20:01:10 10° SSE 20:06:08 65° ENE 20:11:08 10° N
STARLINK-1113 3.6 20:02:04 10° W 20:06:13 85° S 20:10:23 10° E
STARLINK-1115 4.3 20:02:30 10° W 20:06:26 42° SSW 20:10:21 10° SE
Cosmos 1975 3.3 20:02:51 10° NNW 20:06:54 62° W 20:10:54 10° S
STARLINK-1126 3.6 20:04:42 10° W 20:08:52 77° SSW 20:13:00 10° ESE
CZ-2C R/B 3.7 20:05:21 10° N 20:10:45 54° WNW 20:16:12 10° SW
STARLINK-1119 3.6 20:07:02 10° W 20:11:12 86° S 20:15:22 10° E
Meteor 2-9 Rocket 4.5 20:05:46 10° NNW 20:11:12 68° W 20:16:30 10° S
STARLINK-1076 4.3 20:07:30 10° W 20:11:23 40° SSW 20:15:16 10° SE
Spot 2 Rocket 3.8 20:06:35 10° S 20:11:36 68° WSW 20:16:39 10° NNW
Tsikada Rocket 4.2 20:05:39 10° SSW 20:11:51 78° WNW 20:18:04 10° N
Cosmos 676 Rocket 4.1 20:06:39 10° NNW 20:11:54 82° WSW 20:17:10 10° SSE
STARLINK-1082 3.6 20:09:45 10° W 20:13:54 75° SSW 20:18:03 10° ESE
GENESIS II 4.5 20:11:41 10° NW 20:15:43 65° SW 20:19:36 10° SSE
STARLINK-1114 3.6 20:12:02 10° W 20:16:12 87° S 20:20:22 10° E
STARLINK-1092 4.4 20:12:28 10° W 20:16:20 38° SSW 20:20:06 10° SE
SL-4 R/B 1.6 20:15:31 10° NW 20:18:47 61° NE 20:21:42 11° SE
STARLINK-1100 3.6 20:14:43 10° W 20:18:52 73° SSW 20:23:00 10° ESE
Cosmos 389 Rocket 3.8 20:15:46 10° SW 20:19:05 42° WNW 20:22:27 10° N
Cosmos 2056 Rocket 3.4 20:15:33 10° SSW 20:20:38 71° ESE 20:25:45 10° NNE
STARLINK-1205 4.4 20:17:31 10° SSW 20:21:07 29° SE 20:24:44 10° E
STARLINK-1130 (DARKSAT) 3.6 20:17:00 10° W 20:21:09 87° S 20:25:19 10° E
STARLINK-1080 4.5 20:17:30 10° W 20:21:19 36° SSW 20:24:54 11° SE
Okean 1 4.4 20:17:29 10° SSW 20:21:24 48° WNW 20:25:22 10° N
STARLINK-1083 3.6 20:19:41 10° W 20:23:50 71° SSW 20:27:58 10° ESE
ISS -3.5 20:21:39 10° W 20:24:58 54° SSW 20:28:17 10° ESE
STARLINK-1218 4.3 20:22:23 10° SSW 20:26:04 31° SSE 20:29:43 10° E
STARLINK-1084 3.6 20:21:58 10° W 20:26:08 87° S 20:30:18 10° E
STARLINK-1125 3.6 20:24:40 10° W 20:28:48 68° SSW 20:32:55 10° ESE
STARLINK-1254 4.3 20:27:18 10° SSW 20:31:01 33° SSE 20:34:44 10° E
STARLINK-1098 3.6 20:26:58 10° W 20:31:08 87° S 20:35:18 10° E
STARLINK-67 1.5 20:29:34 10° W 20:31:31 79° S 20:33:30 10° E
SL-8 R/B 4.0 20:27:24 10° WSW 20:31:59 45° S 20:36:35 10° E
CARTOSAT-1 3.6 20:28:21 10° SSE 20:32:40 84° WSW 20:37:02 10° NNW
Cosmos 2278 Rocket 2.4 20:28:11 10° S 20:33:40 54° ESE 20:39:13 10° NE
STARLINK-1109 3.6 20:29:38 10° W 20:33:46 66° SSW 20:37:52 10° ESE
STARLINK-1231 4.2 20:32:13 10° SW 20:35:59 34° SSE 20:39:46 10° E
STARLINK-1123 3.6 20:31:56 10° W 20:36:07 87° S 20:40:16 10° E
Meteor 1-12 Rocket 4.4 20:31:40 10° NNW 20:37:20 76° W 20:42:58 10° S
STARLINK-1091 3.7 20:34:36 10° W 20:38:43 64° SSW 20:42:50 10° ESE
Cosmos 1437 Rocket 3.4 20:37:00 12° SSE 20:40:07 37° E 20:43:40 10° NNE
Lacrosse 5 1.9 20:35:10 10° WNW 20:40:12 68° SSW 20:44:51 12° SE
STARLINK-1232 4.1 20:37:07 10° SW 20:40:55 36° SSE 20:44:45 10° E
STARLINK-1097 3.6 20:36:55 10° W 20:41:05 87° S 20:45:15 10° E
NOSS 2-3 (E) 3.7 20:37:45 10° SW 20:42:09 74° SE 20:47:34 10° NE
Terra 1.8 20:38:31 12° SSE 20:42:58 83° ENE 20:47:46 10° NNW
STARLINK-1072 3.7 20:39:36 10° W 20:43:42 62° SSW 20:47:37 11° ESE
Cosmos 1844 Rocket 4.1 20:39:06 10° WSW 20:44:30 43° NW 20:49:55 10° NNE
STARLINK-1208 4.1 20:42:01 10° SW 20:45:51 38° SSE 20:49:44 10° E
STARLINK-1099 3.6 20:41:53 10° W 20:46:02 87° S 20:50:12 10° E
STARLINK-1228 3.0 20:43:06 10° WSW 20:46:24 61° SSE 20:49:43 10° E
STARLINK-1096 3.7 20:44:36 10° W 20:48:42 59° SSW 20:52:26 12° ESE
Cosmos 1300 Rocket 4.1 20:45:36 10° NNW 20:49:59 58° W 20:54:21 10° S
STARLINK-1234 2.8 20:46:56 10° WSW 20:50:00 59° SSE 20:53:06 10° E
STARLINK-1271 4.0 20:46:56 10° SW 20:50:50 40° SSE 20:54:45 10° E
STARLINK-1104 3.6 20:46:52 10° W 20:51:01 86° S 20:55:11 10° E
STARLINK-1212 2.9 20:48:20 10° WSW 20:51:23 51° SSE 20:54:25 10° E
Cosmos 1452 Rocket 3.8 20:46:33 10° S 20:51:38 51° ESE 20:56:46 10° NNE
STARLINK-1209 2.8 20:48:39 10° WSW 20:51:45 62° SSE 20:54:53 10° E
STARLINK-1105 2.9 20:48:49 10° WSW 20:51:51 51° SSE 20:54:53 10° E
STARLINK-1247 2.9 20:49:43 10° WSW 20:52:46 52° SSE 20:55:49 10° E
Cosmos 2084 Rocket 4.2 20:48:43 10° WSW 20:52:59 59° NW 20:57:21 10° NE
STARLINK-1227 2.9 20:50:11 10° WSW 20:53:13 52° SSE 20:56:15 10° E
Crew Dragon 0.9 20:51:28 10° W 20:53:27 31° SSW 20:54:14 23° SSE
STARLINK-1079 3.8 20:49:33 10° W 20:53:38 57° SSW 20:57:11 13° SE
Okean 3 3.8 20:49:22 10° SSW 20:53:39 67° WNW 20:57:59 10° N
STARLINK-1226 2.9 20:51:02 10° WSW 20:54:04 53° SSE 20:57:07 10° E
STARLINK-1215 2.9 20:51:58 10° WSW 20:55:01 53° SSE 20:58:05 10° E
STARLINK-1154 3.9 20:51:52 10° SW 20:55:47 43° SSE 20:59:44 10° E
STARLINK-1144 3.6 20:51:51 10° W 20:56:01 85° S 21:00:10 10° E
STARLINK-1217 2.9 20:53:43 10° WSW 20:56:46 54° SSE 20:59:50 10° E
STARLINK-1229 2.9 20:54:39 10° WSW 20:57:42 55° SSE 21:00:46 10° E
Cosmos 1420 Rocket 3.9 20:53:09 10° SSW 20:58:22 77° ESE 21:03:35 10° NNE
STARLINK-1270 2.9 20:55:30 10° WSW 20:58:33 55° SSE 21:01:38 10° E
STARLINK-1116 3.8 20:54:32 10° W 20:58:36 54° SSW 21:01:58 14° SE
Cosmos 1766 4.1 20:56:30 10° N 21:00:17 40° ENE 21:03:05 16° SE
MTI 3.9 20:57:16 10° NNE 21:00:22 52° ESE 21:02:33 17° S
STARLINK-1189 2.9 20:57:20 10° WSW 21:00:24 56° SSE 21:03:28 10° E
Cosmos 2221 Rocket 4.1 20:56:05 10° SSW 21:00:34 63° WNW 21:05:07 10° N
STARLINK-1197 3.9 20:56:47 10° SW 21:00:45 45° SSE 21:04:43 10° E
STARLINK-1103 3.6 20:56:50 10° W 21:01:00 84° S 21:05:09 10° E
STARLINK-1188 2.9 20:58:11 10° WSW 21:01:16 57° SSE 21:04:21 10° E
STARLINK-1235 2.8 20:58:52 10° WSW 21:01:56 64° SSE 21:05:01 10° E
NOSS 2-3 (D) 3.8 20:57:39 10° SW 21:02:06 89° NW 21:07:35 10° NE
STARLINK-1187 2.8 20:59:18 10° WSW 21:02:21 60° SSE 21:05:25 10° E
SL-4 R/B 3.4 21:02:42 10° ENE 21:03:05 10° ENE 21:03:27 10° NE
Meteor 1-13 Rocket 4.3 20:57:52 10° SSW 21:03:28 88° W 21:09:14 10° NNE
STARLINK-1191 2.8 21:00:40 10° WSW 21:03:44 58° SSE 21:06:47 10° E
STARLINK-1221 2.8 21:01:33 10° WSW 21:04:36 58° SSE 21:07:40 10° E
USA 215 3.3 20:58:38 10° ESE 21:05:12 76° SSW 21:11:47 10° WNW
Cosmos 371 Rocket 3.3 21:00:29 10° S 21:05:16 63° ESE 21:10:06 10° NNE
STARLINK-1222 2.8 21:02:26 10° WSW 21:05:29 59° SSE 21:08:34 10° E
STARLINK-1198 3.8 21:01:42 10° SW 21:05:40 47° SSE 21:09:41 10° E
STARLINK-1101 3.5 21:01:48 10° W 21:05:58 83° S 21:10:07 10° E
Meteor 1-23 Rocket 4.4 21:01:01 12° S 21:06:09 60° E 21:11:44 10° NNE
STARLINK-1214 2.8 21:03:20 10° WSW 21:06:25 59° SSE 21:09:28 10° E
Resurs 01 Rocket 4.3 21:04:40 10° WSW 21:06:30 12° W 21:08:20 10° WNW
Meteor 2-4 Rocket 4.2 21:01:42 10° SSW 21:07:01 59° WNW 21:12:19 10° N
Cosmos 1461 4.4 21:06:45 16° SE 21:08:04 19° ESE 21:11:07 10° ENE
Abrixas rocket 2.7 21:05:46 10° WSW 21:08:25 30° S 21:09:45 21° SE
STARLINK-1094 3.9 21:04:31 10° W 21:08:33 50° SSW 21:11:32 17° SE
Cosmos 1674 Rocket 3.5 21:04:49 12° S 21:08:46 78° E 21:13:11 10° NNE
STARLINK-1199 3.8 21:06:40 10° SW 21:10:40 49° SSE 21:14:42 10° E
STARLINK-1102 3.5 21:06:48 10° W 21:10:58 82° S 21:15:07 10° ESE
deb Kosmos-1763 4.1 21:08:20 10° NNW 21:11:58 72° ENE 21:14:21 20° SE
USA 229 DEB 4.2 21:06:45 10° WSW 21:13:20 64° NW 21:20:23 10° NE
USA 229 4.2 21:06:52 10° WSW 21:13:27 64° NW 21:20:28 10° NE
STARLINK-1117 4.0 21:09:30 10° W 21:13:30 47° SSW 21:16:19 18° SE
STARLINK-1210 3.7 21:11:36 10° SW 21:15:37 52° SSE 21:19:40 10° E
STARLINK-1111 3.5 21:11:46 10° W 21:15:55 81° SSW 21:20:05 10° ESE
Cosmos 1378 Rocket 3.6 21:12:35 15° S 21:16:14 72° E 21:20:38 10° NNE
NOSS 3 (A) 4.4 21:14:32 10° SW 21:17:14 70° SE 21:20:26 10° NE
SPOT 5 4.0 21:12:29 10° SSW 21:17:21 43° W 21:22:25 10° NNW
STARLINK-1078 4.0 21:14:29 10° W 21:18:27 45° SSW 21:21:05 19° SE
Nadezhda 4 Rocket 4.0 21:13:37 13° S 21:19:15 75° E 21:25:23 10° NNE
Cosmos 1733 3.7 21:16:19 10° N 21:20:05 49° ENE 21:22:28 20° SE
Cosmos 1741 Rocket 4.3 21:15:25 10° NNW 21:20:33 59° WSW 21:24:31 17° S
STARLINK-1219 3.7 21:16:32 10° SW 21:20:35 54° SSE 21:24:39 10° E
STARLINK-1073 3.5 21:16:46 10° W 21:20:55 79° SSW 21:25:04 10° ESE
NOSS 3-1 (C) 4.3 21:15:39 10° WSW 21:21:24 55° NNW 21:28:14 10° NE
NOSS 3-1 (A) 3.8 21:16:28 10° WSW 21:22:14 69° NW 21:29:06 10° NE
ATLAS CENTAUR R/B 2.4 21:20:53 10° WNW 21:22:35 27° N 21:24:19 10° ENE
STARLINK-1108 4.1 21:19:29 10° W 21:23:25 43° SSW 21:25:52 20° SE
ATLAS 3B R/B 3.9 21:18:42 10° NW 21:24:59 40° NNE 21:31:25 10° E
STARLINK-1211 3.6 21:21:29 10° WSW 21:25:32 56° SSE 21:29:37 10° E
STARLINK-1121 3.5 21:21:43 10° W 21:25:52 77° SSW 21:30:01 10° ESE
JB-3 4.5 21:21:57 10° NNE 21:26:09 67° ESE 21:29:08 18° S
Cosmos 1975 Rocket 3.9 21:23:47 19° SSE 21:26:24 36° E 21:30:29 10° NNE
STARLINK-1071 4.2 21:24:28 10° W 21:28:21 41° SSW 21:30:39 21° SSE
CENTAUR R/B 3.6 21:21:39 10° NW 21:29:09 60° NNE 21:37:38 10° ESE
Cosmos 2297 4.1 21:25:26 16° S 21:29:45 46° ESE 21:35:11 10° NE
STARLINK-1245 3.6 21:26:27 10° WSW 21:30:31 59° SSE 21:34:37 10° E
STARLINK-1106 3.5 21:26:42 10° W 21:30:51 75° SSW 21:35:00 10° ESE
BREEZE-M DEB (TANK) 4.5 21:19:04 10° WNW 21:32:10 44° SW 21:35:38 19° SSE
STARLINK-1110 4.2 21:28:40 10° W 21:32:33 39° SSW 21:34:41 22° SSE
NOSS 2-3 (C) 4.5 21:28:31 10° WSW 21:33:02 61° NW 21:38:39 10° NE
STARLINK-1203 4.5 21:32:36 15° SSW 21:35:20 28° SE 21:38:58 10° E
STARLINK-1233 3.6 21:31:23 10° WSW 21:35:28 61° SSE 21:39:35 10° E
STARLINK-1112 3.5 21:31:42 10° W 21:35:51 74° SSW 21:39:58 10° ESE
ERBS 2.4 21:33:31 10° SW 21:36:42 46° SE 21:39:54 10° ENE
STARLINK-1143 4.5 21:35:45 17° SSW 21:38:07 28° SE 21:41:41 10° E
STARLINK-1124 4.3 21:34:27 10° W 21:38:16 37° SSW 21:40:13 23° SSE
Cosmos 1242 Rocket 4.3 21:37:35 16° ESE 21:38:59 20° E 21:41:44 10° NE
Cosmos 2082 Rocket 3.2 21:34:57 10° NW 21:40:11 37° WSW 21:44:18 15° SSW
STARLINK-1204 3.5 21:36:21 10° WSW 21:40:27 64° SSE 21:44:34 10° E
STARLINK-1128 3.5 21:36:41 10° W 21:40:49 71° SSW 21:44:50 11° ESE
Cosmos 1470 3.7 21:39:20 10° N 21:43:00 37° ENE 21:45:16 19° SE
STARLINK-1241 4.4 21:40:29 16° SSW 21:43:02 30° SSE 21:46:42 10° E
STARLINK-1122 4.4 21:39:26 10° W 21:43:13 35° SSW 21:45:00 24° SSE
Okean 1 Rocket 3.9 21:39:15 10° NNW 21:43:33 46° W 21:46:51 16° SSW
SeaSat 1 2.4 21:39:09 10° NE 21:44:05 66° ESE 21:48:19 14° SSW
STARLINK-1238 3.5 21:41:17 10° WSW 21:45:24 66° SSE 21:49:31 10° E
STARLINK-1113 3.5 21:41:39 10° W 21:45:47 69° SSW 21:49:36 12° ESE
Cosmos 1110 Rocket 4.1 21:43:28 18° S 21:47:16 60° ESE 21:52:22 10° NNE
STARLINK-1239 4.3 21:45:15 16° SSW 21:47:59 32° SSE 21:51:41 10° E
STARLINK-1126 4.5 21:44:24 10° W 21:48:07 33° SSW 21:49:44 24° S
Cosmos 1833 Rocket 4.4 21:44:21 10° NW 21:48:31 22° WSW 21:52:39 10° SSW
STARLINK-1201 3.5 21:46:16 10° WSW 21:50:23 68° SSE 21:54:32 10° E
STARLINK-1119 3.5 21:46:38 10° W 21:50:45 67° SSW 21:54:23 13° ESE
Cosmos 1805 3.7 21:47:12 10° NNW 21:51:03 55° W 21:53:26 21° SSW
NOSS 2-2 (C) 4.3 21:50:29 24° SE 21:51:14 25° ESE 21:54:34 10° ENE
SL-4 R/B 3.6 21:49:38 10° WNW 21:51:28 14° WSW 21:52:33 13° SW
EO 1 Del DPAF 3.2 21:47:40 10° NNE 21:51:28 69° ESE 21:53:37 24° S
Aureole 2 Rocket 2.1 21:51:13 28° S 21:52:43 66° ESE 21:55:46 10° NNE
STARLINK-1240 4.2 21:50:02 15° SSW 21:52:57 34° SSE 21:56:43 10° E
BREEZE-M DEB (TANK) 4.5 21:38:27 10° W 21:52:59 56° SSW 21:56:23 17° SE
Cosmos 968 Rocket 4.2 21:48:51 10° NNW 21:53:54 48° NE 21:58:02 15° SE
Cosmos 304 Rocket 3.7 21:50:10 15° SSW 21:54:05 82° ESE 21:58:55 10° NNE
NOSS 3-2 (A) 4.0 21:48:03 10° NW 21:55:19 88° SW 22:02:51 13° SE
STARLINK-1206 3.5 21:51:14 10° WSW 21:55:21 71° SSE 21:59:30 10° E
STARLINK-1114 3.6 21:51:37 10° W 21:55:44 65° SSW 21:59:11 14° ESE
Okean 2 3.4 21:53:51 23° S 21:56:18 72° E 22:00:27 10° NNE
Cosmos 1455 Rocket 3.0 21:52:10 10° N 21:56:34 82° E 21:59:07 24° SSE
Cosmos 1092 Rocket 4.0 21:52:19 17° S 21:57:13 88° E 22:03:24 10° N
STARLINK-1216 4.2 21:54:49 14° SSW 21:57:54 36° SSE 22:01:43 10° E
Cosmos 332 Rocket 4.1 21:53:09 10° SW 21:58:03 68° WNW 22:02:58 10° NNE
Cosmos 2369 Rocket 3.3 21:57:14 20° SSE 21:59:59 29° ESE 22:04:46 10° NE
Helios 1A 4.0 21:57:21 17° SE 22:00:07 39° ENE 22:04:02 10° N
STARLINK-1205 3.5 21:56:12 10° WSW 22:00:19 73° SSE 22:04:29 10° E
STARLINK-1130 (DARKSAT) 3.6 21:56:35 10° W 22:00:42 62° SSW 22:03:56 16° ESE
ISS -2.2 21:58:43 10° W 22:01:20 21° SSW 22:01:21 21° SSW
USA 238 DEB 3.8 21:55:29 10° NW 22:02:39 83° SW 22:08:58 15° SE
Cosmos 1486 Rocket 4.2 21:57:23 10° NNW 22:02:43 68° ENE 22:06:31 19° SE
USA 238 3.8 21:55:35 10° NW 22:02:45 84° SW 22:09:06 15° SE
STARLINK-1237 4.1 21:59:35 13° SW 22:02:51 38° SSE 22:06:43 10° E
STARLINK-67 3.5 22:01:33 10° W 22:02:31 23° W 22:02:31 23° W
Cosmos 1378 3.5 22:02:29 19° SSW 22:04:59 60° WNW 22:08:42 10° N
STARLINK-1218 3.5 22:01:09 10° WSW 22:05:18 75° SSE 22:09:27 10° E
STARLINK-1084 3.6 22:01:34 10° W 22:05:39 60° SSW 22:08:43 17° ESE
Cosmos 1842 3.2 22:05:25 26° S 22:07:29 72° E 22:11:24 10° NNE
STARLINK-1202 4.0 22:04:22 12° SW 22:07:49 40° SSE 22:11:43 10° E
OPS 6432 4.4 22:06:27 10° NW 22:09:29 62° SW 22:11:02 29° SSE
STARLINK-1254 3.5 22:06:08 10° WSW 22:10:17 76° SSE 22:14:26 10° E
STARLINK-1098 3.6 22:06:34 10° W 22:10:38 58° SSW 22:13:31 18° SE
Cosmos 1943 Rocket 2.6 22:07:35 22° S 22:10:45 44° ESE 22:16:02 10° NE
Cosmos 1025 Rocket 4.0 22:08:42 22° SE 22:10:46 35° E 22:14:40 10° NNE
Cosmos 1331 Rocket 3.9 22:07:06 18° SSW 22:11:00 81° ESE 22:16:14 10° NNE
SL-8 R/B 4.0 22:09:31 10° W 22:14:05 43° SSW 22:17:56 14° SE
STARLINK-1231 3.5 22:11:07 10° WSW 22:15:17 78° SSE 22:19:26 10° E
Cosmos 1302 Rocket 4.3 22:12:14 23° S 22:15:20 52° ESE 22:20:29 10° NNE
STARLINK-1123 3.7 22:11:32 10° W 22:15:36 55° SSW 22:18:17 20° SE
Meteor 2-13 Rocket 4.5 22:12:50 20° S 22:17:13 81° E 22:23:25 10° NNE
STARLINK-1246 3.9 22:13:54 11° SW 22:17:43 44° SSE 22:21:40 10° E
Cosmos 2278 Rocket 3.6 22:12:42 10° WSW 22:18:00 39° NW 22:23:20 10° NNE
STARLINK-1232 3.5 22:16:05 10° WSW 22:20:15 80° S 22:24:25 10° E
STARLINK-1097 3.7 22:16:31 10° W 22:20:34 53° SSW 22:23:04 21° SE
Terra 4.0 22:18:21 10° SW 22:21:21 16° W 22:24:22 10° NW
ALOS 2 2.6 22:19:22 26° SSE 22:21:51 85° WSW 22:26:17 10° NNW
ATLAS 5 CENTAUR R/B 3.1 22:23:07 17° ESE 22:23:07 17° ESE 22:24:02 10° E
Lacrosse 5 3.4 22:18:52 10° W 22:22:28 20° SW 22:24:01 17° SSW
STARLINK-1224 3.8 22:18:42 10° SW 22:22:40 46° SSE 22:26:39 10° E
STARLINK-1228 2.9 22:19:36 10° W 22:22:57 86° S 22:26:18 10° E
S3M 4.1 22:17:31 10° N 22:23:40 73° ENE 22:27:54 21° SSE
Thor Agena Rocket 3.9 22:18:30 10° NNE 22:23:47 68° WNW 22:28:06 15° SSW
STARLINK-1208 3.5 22:21:03 10° WSW 22:25:12 81° S 22:29:22 10° E
STARLINK-1099 3.8 22:21:28 10° W 22:25:30 50° SSW 22:27:49 23° SE
STARLINK-1234 2.7 22:22:38 10° W 22:25:46 85° S 22:28:54 10° E
Cosmos 1536 Rocket 4.2 22:23:49 24° SSE 22:25:57 43° E 22:30:04 10° NNE
Cosmos 1655 Rocket 4.3 22:22:34 21° SSE 22:26:36 55° E 22:32:40 10° NNE
STARLINK-1212 2.7 22:24:00 10° W 22:27:07 86° S 22:30:14 10° E
STARLINK-1105 2.7 22:24:28 10° W 22:27:35 86° S 22:30:42 10° E
STARLINK-1225 3.8 22:23:39 10° SW 22:27:39 48° SSE 22:31:40 10° E
STARLINK-1209 2.7 22:24:32 10° W 22:27:42 85° S 22:30:51 10° E
STARLINK-1247 2.7 22:25:22 10° W 22:28:30 86° S 22:31:38 10° E
STARLINK-1227 2.7 22:25:50 10° W 22:28:57 86° S 22:32:03 10° E
STARLINK-1226 2.7 22:26:42 10° W 22:29:48 86° S 22:32:57 10° E
STARLINK-1271 3.5 22:26:02 10° W 22:30:12 83° S 22:34:22 10° E
STARLINK-1104 3.8 22:26:28 10° W 22:30:28 48° SSW 22:32:37 24° SE
STARLINK-1215 2.7 22:27:37 10° W 22:30:45 86° S 22:33:54 10° E
SL-4 R/B 1.7 22:31:54 30° WSW 22:31:57 30° W 22:33:59 10° NW
Cosmos 1544 Rocket 3.7 22:28:01 10° NNW 22:32:19 63° W 22:34:36 26° S
STARLINK-1217 2.7 22:29:24 10° W 22:32:32 86° S 22:35:39 10° E
STARLINK-1230 3.7 22:28:35 10° SW 22:32:36 51° SSE 22:36:38 10° E
BREEZE-M DEB (TANK) 3.2 22:23:17 10° WSW 22:32:42 50° S 22:35:49 10° E
GEOS 3 Rocket 4.1 22:27:37 10° ESE 22:32:46 62° NE 22:38:02 10° NW
STARLINK-1229 2.7 22:30:19 10° W 22:33:27 86° S 22:36:35 10° E
STARLINK-1270 2.7 22:31:10 10° W 22:34:18 86° S 22:37:26 10° E
Cosmos 1726 2.6 22:30:57 10° N 22:34:35 51° ENE 22:36:25 26° SE
STARLINK-1154 3.5 22:31:01 10° W 22:35:11 84° S 22:39:21 10° E
STARLINK-1144 3.9 22:31:27 10° W 22:35:26 46° SSW 22:37:24 26° SSE
Cosmos 2228 4.4 22:31:56 10° N 22:35:44 30° ENE 22:38:43 14° SE
STARLINK-1189 2.7 22:33:01 10° W 22:36:09 86° S 22:39:17 10° E
STARLINK-1188 2.7 22:33:54 10° W 22:37:02 86° S 22:40:10 10° E
STARLINK-1243 3.7 22:33:31 10° SW 22:37:34 53° SSE 22:41:37 10° E
STARLINK-1235 2.7 22:34:36 10° W 22:37:42 84° S 22:40:48 10° E
STARLINK-1187 2.7 22:35:01 10° W 22:38:08 85° S 22:41:14 10° E
SL-27 R/B 2.7 22:34:40 10° NNW 22:38:15 56° WSW 22:39:37 32° S
STARLINK-1191 2.7 22:36:23 10° W 22:39:30 85° S 22:42:36 10° E
STARLINK-1197 3.5 22:35:59 10° W 22:40:09 85° S 22:44:20 10° E
STARLINK-1221 2.7 22:37:15 10° W 22:40:22 85° S 22:43:29 10° E
STARLINK-1103 3.9 22:36:26 10° W 22:40:24 44° SSW 22:42:11 27° SSE
STARLINK-1222 2.7 22:38:09 10° W 22:41:15 85° S 22:44:22 10° E
Cosmos 1553 Rocket 4.1 22:35:02 10° NNW 22:41:22 69° W 22:45:31 22° S
Cosmos 1953 2.4 22:37:42 10° N 22:41:44 71° ENE 22:43:45 28° SSE
STARLINK-1214 2.7 22:39:04 10° W 22:42:10 85° S 22:45:17 10° E
STARLINK-1236 3.6 22:38:28 10° SW 22:42:32 56° SSE 22:46:36 10° E
Cosmos 1340 Rocket 3.2 22:39:20 10° N 22:43:20 58° ENE 22:45:33 25° SE
Cosmos 1833 4.2 22:37:55 10° NNW 22:43:37 84° ENE 22:47:49 19° SE
STARLINK-1198 3.5 22:40:57 10° W 22:45:07 86° S 22:49:17 10° E
STARLINK-1101 4.0 22:41:25 10° W 22:45:21 41° SSW 22:46:57 28° SSE
Cosmos 1461 3.0 22:43:04 14° SW 22:46:37 80° NW 22:51:05 10° NE
Cosmos 1271 Rocket 2.6 22:46:32 31° S 22:48:18 79° ESE 22:52:13 10° NNE
USA 215 4.1 22:45:48 21° S 22:48:54 31° SW 22:54:37 10° WNW
Aureole 3 Rocket 4.2 22:44:50 10° NNW 22:49:40 54° W 22:54:04 21° SSW
STARLINK-1199 3.5 22:45:58 10° W 22:50:08 86° S 22:54:18 10° E
Cosmos 1758 3.7 22:46:12 10° NNW 22:50:09 53° W 22:52:04 27° SSW
STARLINK-1102 4.1 22:46:26 10° W 22:50:19 39° SSW 22:51:45 29° SSE
Cosmos 2026 Rocket 4.5 22:45:53 16° SSW 22:50:55 56° WNW 22:57:11 10° N
COSMOS 2487 3.4 22:48:18 10° NNW 22:51:40 43° ENE 22:53:49 19° SE
STARLINK-1269 3.6 22:48:21 10° WSW 22:52:27 60° SSE 22:56:33 10° E
STARLINK-1210 3.5 22:50:55 10° W 22:55:05 87° S 22:59:15 10° E
STARLINK-1111 4.2 22:51:25 10° W 22:55:16 37° SSW 22:56:31 30° S
Cosmos 1656 Rocket 4.4 22:52:30 22° SSE 22:55:25 38° ESE 23:00:33 10° NE
Cosmos 1707 2.7 22:53:56 30° S 22:55:47 88° E 22:59:43 10° NNE
In-Cosmos 22 4.4 22:54:02 23° SSE 22:57:08 53° E 23:02:17 10° NNE
STARLINK-1200 3.5 22:53:20 10° WSW 22:57:26 63° SSE 23:01:33 10° E
Cosmos 1606 Rocket 4.2 22:54:45 10° N 22:58:58 48° ENE 23:01:42 20° SE
NOSS 2-2 (D) 3.2 22:57:14 21° SW 22:59:35 87° SE 23:03:54 10° NE
Meteor 1-16 Rocket 4.2 22:54:07 10° NNW 22:59:49 86° ENE 23:03:23 23° SSE
STARLINK-1219 3.5 22:55:54 10° W 23:00:04 87° S 23:04:14 10° E
NOSS 3-2 (C) 4.1 22:52:53 10° NW 23:00:10 66° SW 23:07:07 15° SSE
STARLINK-1073 4.2 22:56:26 10° W 23:00:13 35° SSW 23:01:19 30° S
YAOGAN 11 4.1 22:58:51 27° S 23:01:11 76° WSW 23:05:33 10° NNW
STARLINK-1192 3.5 22:58:17 10° WSW 23:02:24 65° SSE 23:06:32 10° E
Cosmos 2297 Rocket 4.2 22:57:58 10° NNW 23:02:45 27° NE 23:07:31 10° E
Cosmos 1975 Rocket 4.5 23:00:54 13° SW 23:04:18 32° WNW 23:08:19 10° N
Cosmos 2292 Rocket 3.5 23:02:08 27° S 23:04:20 63° E 23:07:53 10° NNE
STARLINK-1211 3.5 23:00:52 10° W 23:05:02 87° S 23:09:12 10° E
STARLINK-1121 4.3 23:01:24 10° W 23:05:09 33° SSW 23:06:04 30° S
STARLINK-1244 3.5 23:03:14 10° WSW 23:07:21 67° SSE 23:11:29 10° E
STARLINK-1245 3.5 23:05:52 10° W 23:10:02 87° S 23:14:12 10° E
STARLINK-1106 4.4 23:06:24 10° W 23:10:06 32° SSW 23:10:51 29° S
Meteor 2-10 4.1 23:06:01 10° NNW 23:11:02 60° W 23:13:54 25° S
STARLINK-1138 3.5 23:08:12 10° WSW 23:12:20 70° SSE 23:16:28 10° E
Aureole 3 3.0 23:08:34 10° NNW 23:12:32 83° W 23:13:55 34° S
ERBS 3.0 23:09:43 10° W 23:13:00 54° NNW 23:16:17 10° ENE
NOSS 3-4 (A) 4.1 23:10:07 22° S 23:13:11 37° ESE 23:18:56 10° NE
NOSS 3-4 (C) 4.2 23:10:13 22° S 23:13:17 37° ESE 23:19:03 10° NE
Cosmos 1242 Rocket 3.5 23:11:35 21° SW 23:13:37 40° WNW 23:17:08 10° N
PSLV R/B 4.3 23:09:11 10° NNE 23:13:40 45° E 23:16:05 23° SSE
SL-4 R/B 4.0 23:13:39 17° SE 23:13:52 17° SE 23:16:55 10° E
STARLINK-1203 3.5 23:10:34 10° WSW 23:14:45 71° SSE 23:18:57 10° E
STARLINK-1233 3.5 23:10:50 10° W 23:15:00 87° S 23:19:10 10° E
STARLINK-1112 4.4 23:11:25 10° W 23:15:04 30° SSW 23:15:39 29° SSW
ATLAS 3B R/B 2.7 23:09:40 10° NW 23:16:27 86° NE 23:23:27 10° SE
STARLINK-1143 3.5 23:13:10 10° WSW 23:17:18 72° SSE 23:21:27 10° E
NOSS 2-2 (E) 3.8 23:15:11 12° WSW 23:18:37 61° NW 23:23:08 10° NE
SL-16 R/B 3.9 23:13:08 10° ESE 23:18:39 36° ENE 23:24:10 10° N
Cosmos 1470 4.4 23:15:44 10° NW 23:18:53 24° W 23:20:37 18° SW
STARLINK-1204 3.5 23:15:50 10° W 23:20:00 87° S 23:24:10 10° E
CENTAUR R/B 3.2 23:12:26 10° NW 23:20:12 62° SW 23:27:41 14° SSE
Cosmos 2266 Rocket 3.9 23:16:09 23° S 23:20:13 89° W 23:26:20 10° N
Cosmos 1674 3.1 23:18:32 27° SSE 23:20:14 50° E 23:23:53 10° NNE
SeaSat 1 4.1 23:17:00 10° NNE 23:21:21 31° NW 23:25:39 10° WSW
Cosmos 1503 Rocket 4.3 23:16:40 10° NNW 23:21:50 55° WSW 23:24:51 24° S
ATLAS CENTAUR R/B 3.1 23:20:47 17° SE 23:22:03 20° ESE 23:25:05 10° ENE
STARLINK-1241 3.5 23:18:08 10° WSW 23:22:16 74° SSE 23:26:25 10° E
STARLINK-1238 3.5 23:20:47 10° W 23:24:57 86° S 23:29:07 10° E
STARLINK-1239 3.5 23:23:06 10° WSW 23:27:15 76° SSE 23:31:24 10° E
STARLINK-1201 3.5 23:25:47 10° W 23:29:57 86° S 23:34:07 10° E
BREEZE-M DEB 4.4 23:27:00 10° WSW 23:31:12 67° S 23:48:04 10° E
Cosmos 1867 3.6 23:26:29 10° NW 23:31:55 66° SW 23:36:08 17° SSE
BREEZE-M DEB (TANK) 3.7 23:28:52 10° W 23:32:06 36° SSW 23:37:06 10° SE
STARLINK-1240 3.5 23:28:05 10° WSW 23:32:14 78° SSE 23:36:23 10° E
STARLINK-1206 3.5 23:30:46 10° W 23:34:55 85° S 23:39:05 10° E
Cosmos 968 Rocket 4.4 23:30:58 10° NW 23:35:33 33° WSW 23:38:01 21° SSW
Helios 1A 4.2 23:33:57 21° SW 23:35:47 28° W 23:39:26 10° NW
Cosmos 1354 Rocket 4.4 23:31:37 10° NW 23:36:41 47° WSW 23:39:37 23° SSW
STARLINK-1216 3.5 23:33:03 10° WSW 23:37:12 79° S 23:41:22 10° E
Cosmos 1908 3.2 23:34:25 10° NNW 23:38:14 68° W 23:40:02 29° S
Cosmos 2227 Rocket 3.8 23:33:27 10° NNW 23:38:40 36° NE 23:43:52 10° ESE
STARLINK-1205 3.5 23:35:44 10° W 23:39:54 84° S 23:44:04 10° E
Cosmos 1892 Rocket 4.1 23:37:41 22° SSE 23:40:17 50° E 23:44:33 10° NNE
NOSS 2-2 (C) 4.1 23:37:51 10° WSW 23:41:29 51° NNW 23:45:52 10° NE
ATLAS 2AS CENTAUR R/B 3.2 23:35:53 19° SSW 23:41:45 62° SE 23:49:30 10° NE
STARLINK-1237 3.5 23:38:02 10° WSW 23:42:12 81° S 23:46:21 10° E
Meteor 1-24 Rocket 4.3 23:39:53 18° SSE 23:43:30 46° E 23:48:39 10° NNE
Cosmos 2369 Rocket 2.5 23:38:58 15° SW 23:43:39 64° NW 23:49:17 10° NNE
CZ-2D R/B 3.8 23:40:27 10° NE 23:44:37 23° E 23:48:42 10° SE
STARLINK-1218 3.5 23:40:42 10° W 23:44:51 83° S 23:49:01 10° E
RESURS DK-1 4.2 23:43:24 15° SE 23:45:21 20° ESE 23:48:23 10° ENE
STARLINK-1202 3.5 23:43:01 10° WSW 23:47:11 82° S 23:51:21 10° E
Cosmos 1726 Rocket 3.5 23:42:51 10° NNW 23:47:11 75° W 23:49:41 25° S
Cosmos 2315 Rocket 4.2 23:41:57 10° NNW 23:48:02 60° W 23:52:12 21° SSW
Cosmos 1025 Rocket 4.4 23:45:34 15° WSW 23:48:25 31° WNW 23:52:15 10° N
STARLINK-1254 3.5 23:45:42 10° W 23:49:51 82° S 23:54:01 10° ESE
Helios 1B rocket 2.4 23:46:22 10° NNE 23:50:31 84° WNW 23:52:51 25° SSW
Cosmos 1943 Rocket 3.1 23:49:14 10° WSW 23:54:32 44° NW 23:59:55 10° NNE
Resurs 1-4 Rocket 3.6 23:50:14 10° NE 23:54:44 28° E 23:59:06 11° SSE
STARLINK-1231 3.5 23:50:42 10° W 23:54:51 80° S 23:59:00 10° ESE
